{"data":{"norad_id":49094,"epoch":"2026-05-25T02:53:31.416864Z","epoch_age_seconds":60588,"freshness":"FRESH","line1":"1 49094U 21075V   26145.12050251  .00000319  00000+0  85154-3 0  9993","line2":"2 49094  87.8961 355.2457 0001772  85.5347 274.5983 13.12440976231536","mean_motion":13.12440976,"eccentricity":0.0001772,"inclination_deg":87.8961,"raan_deg":355.2457,"arg_perigee_deg":85.5347,"mean_anomaly_deg":274.5983,"bstar":0.00085154,"rev_number":23153,"period_min":109.71921986075,"perigee_km":1212.3858172845,"apogee_km":1215.0763753378,"semimajor_km":7591.8680963112,"source":"CELESTRAK","updated_at":"2026-05-25T13:38:22.484847Z"}}